[[{"header":{"parameterUnit":"m.s-1","parameterCategory":1,"la1":30.2991,"la2":30.254,"lo1":-89.0895,"lo2":-89.0444,"dy":0.0017,"dx":0.0017,"nx":28,"ny":28,"refTime":"2023-08-10T09:00:00:Z","depth":0,"parameterNumber":2,"parameterNumberName":"U-component_of_WINDS"},"data":[0,0,0,0,0,0,0,0,0,0,0,0,0,0,0,0,0,0,0,0,0,0,0,0,0,0,0,0,0,0,0,0,0,0,0,0,0,0,0,0,0,0,0,0,0,0,0,0,0,0,0,0,0,0,0,0,0,0,1.8767,1.8767,0,1.8821,1.8822,1.8822,1.8819,1.8818,1.8818,1.8817,1.8877,1.8879,1.8881,0,0,0,0,0,0,0,0,0,0,0,0,0,1.8666,1.8668,1.8766,1.8767,1.8768,1.8821,1.8822,1.8823,1.8819,1.8818,1.8817,1.8816,1.8876,1.8879,1.8882,0,0,0,0,0,0,0,0,0,0,0,0,0,1.8714,1.8669,1.8766,1.8773,1.8774,1.8821,1.8822,1.8823,1.882,1.8818,1.8817,1.8816,1.8875,1.8879,1.8882,1.8928,0,0,1.8893,1.8894,0,0,0,0,0,0,0,0,1.8712,1.8718,1.8771,1.8772,1.8773,1.8812,1.8808,1.8858,1.882,1.8802,1.8817,1.8815,1.8857,1.8862,1.8875,1.8931,1.8933,1.8893,1.8895,1.8897,1.8898,0,0,0,0,0,0,0,1.8708,1.8716,1.8788,1.8772,1.8773,1.8775,1.878,1.8818,1.8836,1.8804,1.8804,1.881,1.8857,1.8871,1.8876,1.8934,1.8893,1.8896,1.8898,1.89,1.9037,1.9039,0,0,0,0,0,0,1.8703,1.8713,1.8786,1.879,1.8739,1.8778,1.8784,1.8801,1.8835,1.8839,1.8811,1.881,1.8866,1.8872,1.8878,1.8938,1.8897,1.89,1.8902,1.9036,1.9037,1.9039,0,0,0,0,0,0,1.8701,1.8709,1.8784,1.8751,1.8761,1.8781,1.88,1.8803,1.8817,1.8841,1.8844,1.8822,1.8865,1.8873,1.8917,1.894,1.8902,1.8905,1.9034,1.9036,1.9038,1.9056,0,0,0,0,0,0,1.8698,1.8708,1.8724,1.8752,1.8763,1.882,1.8801,1.8805,1.8822,1.8821,1.8852,1.8856,1.8865,1.8911,1.892,1.8944,1.8908,1.9032,1.9035,1.9038,1.9053,1.9058,1.9063,0,0,0,0,0,1.8694,1.8727,1.8725,1.8734,1.8783,1.8821,1.8828,1.8836,1.8824,1.8842,1.8858,1.8855,1.8936,1.8916,1.8926,1.8951,1.903,1.9034,1.9037,1.9051,1.9057,1.9063,0,0,0,0,0,0,1.8702,1.873,1.8729,1.8771,1.8793,1.882,1.8842,1.8842,1.8869,1.8867,1.8878,1.8885,1.893,1.8945,1.8922,1.9,1.8982,1.8987,1.8989,1.8995,1.9,1.8996,1.8911,0,0,0,0,0,1.8708,1.8735,1.8759,1.8794,1.8806,1.8822,1.8839,1.8844,1.8869,1.8879,1.8898,1.8923,1.8955,1.8976,1.9006,1.9055,1.9064,1.9078,1.9083,1.9086,1.9092,1.9124,1.9132,1.905,1.905,1.905,0,0,1.8722,1.8741,1.8757,1.8796,1.8814,1.8845,1.883,1.8862,1.8886,1.8884,1.8927,1.8942,1.8972,1.902,1.9042,1.9033,1.9117,1.9091,1.9094,1.9097,1.9129,1.9136,1.9143,1.9053,1.9052,1.9052,0,0,1.8763,1.8778,1.8811,1.883,1.8858,1.887,1.8878,1.8906,1.8916,1.8959,1.896,1.899,1.9042,1.9065,1.9083,1.9138,1.9138,1.9148,1.9173,1.9205,1.9211,1.9217,1.9241,1.9249,1.9153,1.9153,1.9153,0,1.8777,1.8821,1.8828,1.8862,1.8881,1.8881,1.8916,1.8935,1.8972,1.8986,1.8976,1.9046,1.9065,1.9121,1.9135,1.9148,1.9161,1.9145,1.9209,1.9215,1.9221,1.9244,1.9252,1.9154,1.9154,1.9154,1.9153,0,1.8839,1.887,1.8894,1.893,1.8951,1.8985,1.9001,1.9023,1.9027,1.9041,1.9088,1.9111,1.9149,1.9162,1.9165,1.922,1.9214,1.9206,1.9189,1.923,1.9252,1.926,1.9156,1.9155,1.9155,1.9154,0,0,1.8885,1.8927,1.8936,1.8954,1.8987,1.9012,1.9049,1.9084,1.9105,1.9131,1.9165,1.9212,1.9206,1.9227,1.9234,1.9261,1.9309,1.9251,1.9252,1.9264,1.9376,1.9383,1.9393,1.9309,1.931,1.9311,1.9375,0,1.8932,1.8994,1.9004,1.906,1.9092,1.9094,1.9126,1.9152,1.9167,1.9198,1.9214,1.9249,1.9237,1.9251,1.9278,1.9297,1.9332,1.9293,1.9344,1.9345,1.9338,1.9403,1.9411,1.9469,1.9383,1.9384,1.9385,0,1.8995,1.9024,1.9083,1.9116,1.9129,1.9157,1.9194,1.9222,1.9253,1.9262,1.9288,1.9293,1.9335,1.9314,1.9374,1.9348,1.9369,1.9383,1.9385,1.9392,1.9369,1.9416,1.9487,1.9497,1.9398,1.9397,1.9396,0,1.9027,1.908,1.9124,1.9139,1.9177,1.9198,1.9216,1.9245,1.9268,1.93,1.9316,1.9353,1.9374,1.9404,1.9421,1.9404,1.9482,1.9461,1.9494,1.9494,1.9511,1.9511,1.9591,1.9521,1.9521,1.952,1.952,0,1.908,1.9117,1.914,1.9167,1.921,1.9222,1.9266,1.9283,1.931,1.9343,1.9347,1.9379,1.9398,1.9433,1.9447,1.9497,1.9506,1.9517,1.9521,1.9519,1.9518,1.9534,1.9532,1.9523,1.9522,1.9522,1.9521,0,1.9123,1.9139,1.9188,1.9221,1.923,1.9261,1.9291,1.9319,1.9335,1.9377,1.9388,1.9414,1.9456,1.9476,1.9528,1.9537,1.9596,1.9595,1.9586,1.9588,1.9621,1.9619,1.9716,1.9732,1.9649,1.965,1.965,0,1.9157,1.9185,1.9222,1.9244,1.9262,1.9297,1.9321,1.9336,1.9361,1.9401,1.9426,1.9469,1.9503,1.9572,1.9597,1.9639,1.9641,1.9673,1.9647,1.9646,1.9646,1.9646,1.9651,1.9678,1.9679,1.9679,1.968,0,1.9216,1.9224,1.9256,1.9294,1.9322,1.9352,1.9382,1.94,1.9421,1.945,1.9493,1.952,1.9575,1.9619,1.9663,1.9684,1.9688,1.9688,1.9698,1.9697,1.9692,1.9699,1.9602,1.9686,1.9685,1.9685,1.9684,1.9684,1.9258,1.9285,1.9317,1.9355,1.9379,1.9408,1.9438,1.9458,1.9494,1.9539,1.9546,1.9594,1.9629,1.9689,1.9712,1.9752,1.9745,1.9759,1.9763,1.9767,1.9771,1.9684,1.9759,1.9759,1.9759,1.9759,1.9759,0,1.9321,1.9342,1.9376,1.9419,1.945,1.9449,1.9483,1.951,1.9551,1.9583,1.9618,1.9671,1.9715,1.9745,1.979,1.9817,1.982,1.9829,1.9828,1.9834,1.9772,1.9761,1.9826,1.9826,1.9826,1.9826,1.9826,1.9826,1.9357,1.9405,1.9417,1.9479,1.9501,1.9546,1.9567,1.9595,1.9621,1.968,1.9716,1.9735,1.9768,1.9816,1.9858,1.9866,1.9884,1.9894,1.9903,1.9845,1.9838,1.9831,1.982,1.9897,1.9897,1.9961,1.9962,1.9962]},{"header":{"parameterUnit":"m.s-1","parameterCategory":1,"la1":30.2991,"la2":30.254,"lo1":-89.0895,"lo2":-89.0444,"dy":0.0017,"dx":0.0017,"nx":28,"ny":28,"refTime":"2023-08-10T09:00:00:Z","depth":0,"parameterNumber":3,"parameterNumberName":"V-component_of_WINDS"},"data":[0,0,0,0,0,0,0,0,0,0,0,0,0,0,0,0,0,0,0,0,0,0,0,0,0,0,0,0,0,0,0,0,0,0,0,0,0,0,0,0,0,0,0,0,0,0,0,0,0,0,0,0,0,0,0,0,0,0,5.2341,5.2343,0,5.2524,5.2526,5.2528,5.2563,5.2562,5.2561,5.2559,5.274,5.2746,5.2752,0,0,0,0,0,0,0,0,0,0,0,0,0,5.2018,5.2024,5.2341,5.2343,5.2345,5.2523,5.2526,5.2528,5.2564,5.2562,5.256,5.2559,5.2738,5.2745,5.2752,0,0,0,0,0,0,0,0,0,0,0,0,0,5.2175,5.2025,5.234,5.2385,5.239,5.2523,5.2526,5.2529,5.2564,5.2562,5.256,5.2558,5.2735,5.2744,5.2753,5.2852,0,0,5.2781,5.2785,0,0,0,0,0,0,0,0,5.2166,5.2187,5.2376,5.2382,5.2389,5.2519,5.2478,5.2637,5.2565,5.2498,5.2559,5.2557,5.2667,5.2682,5.2721,5.2861,5.2868,5.2782,5.2788,5.2791,5.2794,0,0,0,0,0,0,0,5.2155,5.2179,5.2413,5.2379,5.2386,5.2394,5.2414,5.2508,5.2592,5.2504,5.2507,5.2528,5.267,5.2712,5.2725,5.2871,5.2782,5.279,5.2796,5.2799,5.3104,5.3106,0,0,0,0,0,0,5.2137,5.217,5.2407,5.2418,5.227,5.2401,5.2424,5.2479,5.2591,5.2606,5.253,5.2529,5.2697,5.2714,5.2732,5.2857,5.2791,5.28,5.2805,5.3101,5.3104,5.3107,0,0,0,0,0,0,5.213,5.2158,5.24,5.2295,5.2326,5.2409,5.2471,5.2484,5.2525,5.2611,5.2626,5.2557,5.2696,5.2719,5.2823,5.2864,5.2804,5.2812,5.3098,5.3102,5.3106,5.3108,0,0,0,0,0,0,5.2121,5.2155,5.2195,5.2296,5.2332,5.249,5.2473,5.2489,5.2542,5.2543,5.2641,5.2655,5.2696,5.2809,5.2832,5.2875,5.282,5.3095,5.31,5.3104,5.3104,5.3111,5.3117,0,0,0,0,0,5.2109,5.2186,5.2196,5.2225,5.2383,5.2492,5.2512,5.2561,5.2545,5.2585,5.264,5.2651,5.2855,5.282,5.2846,5.2892,5.3092,5.3098,5.3104,5.3101,5.311,5.3117,0,0,0,0,0,0,5.2084,5.22,5.2213,5.2325,5.2399,5.2498,5.2549,5.2567,5.2645,5.2642,5.2697,5.2719,5.282,5.2866,5.2824,5.2995,5.2973,5.2984,5.2962,5.297,5.2977,5.2964,5.2827,0,0,0,0,0,5.2092,5.2172,5.2268,5.2358,5.2394,5.2466,5.2514,5.2546,5.2623,5.2654,5.2717,5.279,5.2871,5.2923,5.3002,5.3111,5.3133,5.3156,5.3162,5.3167,5.3176,5.324,5.3251,5.3126,5.3126,5.3126,0,0,5.2108,5.2181,5.2228,5.2355,5.2416,5.2497,5.2491,5.2576,5.2637,5.2666,5.277,5.2819,5.2904,5.3012,5.3062,5.3053,5.3216,5.3174,5.3177,5.3184,5.3247,5.3258,5.3269,5.313,5.313,5.3129,0,0,5.218,5.2243,5.2327,5.2389,5.2482,5.2529,5.2549,5.2646,5.2681,5.2787,5.2811,5.2882,5.302,5.3081,5.313,5.3228,5.3241,5.3251,5.3284,5.3346,5.3355,5.3364,5.3401,5.3414,5.326,5.326,5.326,0,5.2188,5.2314,5.2366,5.2452,5.2507,5.254,5.2625,5.2681,5.2794,5.2831,5.282,5.2996,5.3055,5.3179,5.3204,5.3241,5.3266,5.3241,5.335,5.336,5.3369,5.3405,5.3418,5.3261,5.3261,5.3261,5.3261,0,5.232,5.2406,5.2462,5.2575,5.2636,5.272,5.2784,5.284,5.2866,5.2914,5.3022,5.3095,5.319,5.3222,5.3246,5.335,5.3342,5.3339,5.3318,5.3381,5.3415,5.3429,5.3262,5.3262,5.3261,5.3261,0,0,5.238,5.2523,5.2543,5.2596,5.2702,5.2769,5.2855,5.2952,5.2999,5.3076,5.315,5.3267,5.3267,5.3322,5.3354,5.3407,5.3483,5.3399,5.3402,5.3414,5.3604,5.3606,5.3621,5.3493,5.3495,5.3498,5.3597,0,5.2466,5.2624,5.2675,5.2806,5.2887,5.2921,5.2996,5.3068,5.3116,5.3191,5.3242,5.3326,5.3318,5.3352,5.3406,5.3462,5.3522,5.3456,5.3562,5.3565,5.3541,5.3639,5.3641,5.3731,5.3611,5.3613,5.3615,0,5.2588,5.2671,5.2811,5.2911,5.2946,5.3013,5.3107,5.3178,5.3262,5.3293,5.3356,5.3385,5.3475,5.3448,5.3574,5.3528,5.3574,5.3608,5.3613,5.3626,5.3595,5.3656,5.3761,5.3775,5.3636,5.3634,5.3633,0,5.2621,5.2767,5.2871,5.2914,5.3032,5.3079,5.3129,5.3211,5.3267,5.3348,5.3385,5.3474,5.3523,5.3591,5.3643,5.3618,5.3765,5.3742,5.3793,5.3792,5.3823,5.3821,5.394,5.385,5.385,5.385,5.3849,0,5.2713,5.2797,5.2888,5.2951,5.3048,5.3105,5.3198,5.325,5.3323,5.3397,5.3429,5.3497,5.3561,5.3638,5.3678,5.3778,5.3798,5.3826,5.3836,5.3824,5.3821,5.3856,5.3852,5.3853,5.3853,5.3852,5.3851,0,5.2766,5.2829,5.2945,5.3048,5.3076,5.3143,5.3231,5.3293,5.3343,5.3436,5.3461,5.3539,5.3631,5.3689,5.3805,5.3832,5.3942,5.3949,5.3915,5.392,5.3969,5.3964,5.4116,5.4139,5.4032,5.4033,5.4034,0,5.2821,5.2887,5.2999,5.3053,5.3105,5.319,5.3248,5.3307,5.3366,5.3468,5.3518,5.3613,5.3692,5.3837,5.3903,5.3992,5.4003,5.405,5.4016,5.4003,5.4006,5.4003,5.401,5.4055,5.4056,5.4057,5.4057,0,5.2913,5.2942,5.3026,5.3122,5.3191,5.3269,5.3346,5.3387,5.3459,5.3523,5.362,5.3682,5.3802,5.3896,5.3992,5.4043,5.4063,5.4068,5.4085,5.4074,5.4053,5.4068,5.3932,5.4064,5.4063,5.4063,5.4063,5.4062,5.297,5.3032,5.3122,5.3215,5.328,5.3352,5.3418,5.3477,5.3559,5.3664,5.3693,5.3794,5.3877,5.4009,5.4062,5.4141,5.4135,5.4159,5.4165,5.4171,5.4173,5.4039,5.4158,5.4158,5.4158,5.4158,5.4158,0,5.3066,5.3126,5.3211,5.332,5.3394,5.3409,5.3495,5.3555,5.3645,5.3722,5.3801,5.3913,5.4005,5.4078,5.4173,5.4222,5.4234,5.4245,5.4243,5.4255,5.4172,5.4149,5.4235,5.4235,5.4235,5.4235,5.4235,5.4235,5.3124,5.3231,5.3271,5.3411,5.347,5.3572,5.362,5.3687,5.375,5.3874,5.3952,5.4001,5.4077,5.4178,5.4263,5.4283,5.4317,5.4327,5.4348,5.4269,5.426,5.4252,5.4231,5.4333,5.4333,5.4425,5.4426,5.4426]}]]